Weather History for Osceola, WI

Change the Weather History Date:

Saturday, November 16, 2013

  Actual Average (KMSP) Record (KMSP)
Temperature  
Mean Temperature 45 °F 33 °F  
Max Temperature 50 °F 41 °F 68 °F (1953)
Min Temperature 40 °F 26 °F -2 °F (1933)
Degree Days  
Heating Degree Days 20 32  
Month to date heating degree days 437  
Since 1 July heating degree days 1117  
Cooling Degree Days 0 0  
Month to date cooling degree days 0  
Year to date cooling degree days 753  
Moisture  
Dew Point 42 °F    
Average Humidity 91    
Maximum Humidity 100    
Minimum Humidity 72    
Precipitation  
Precipitation 0.05 in 0.06 in 1.27 in (1996)
Month to date precipitation 0.97  
Year to date precipitation 28.65  
Snow  
Snow 0.00 in 0.30 in 10.50 in (1909)
Month to date snowfall 3.7  
Since 1 July snowfall 4.3  
Since 1 September snowfall 4.3  
Snow Depth -    
Sea Level Pressure  
Sea Level Pressure 29.45 in    
Wind  
Wind Speed 10 mph (SE)    
Max Wind Speed 15 mph    
Max Gust Speed 22 mph    
Visibility 8 miles    
Events Rain    
T = Trace of Precipitation, MM = Missing Value Source: NWS Daily Summary

Daily Weather History Graph

Daily Weather History Graph

Search for Another Location

Airport:

Trip Planner

Search our weather history database for the weather conditions in past years. The results will help you decide how hot, cold, wet, or windy it might be!

Date:

Astronomy

Nov. 16, 2013 Rise Set
Actual Time 7:11 AM CST 4:39 PM CST
Civil Twilight 6:38 AM CST 5:11 PM CST
Nautical Twilight 6:03 AM CST 5:47 PM CST
Astronomical Twilight 5:28 AM CST 6:22 PM CST
Moon 4:17 PM CST (11/16) 6:05 AM CST (11/16)
Length of Visible Light 10h 32m
Length of Day
9h 28m
Waxing Gibbous, 99% of the Moon is Illuminated
Nov 16
Waxing Gibbous
Nov 17
Full
Nov 25
Last Quarter
Dec 2
New
Dec 9
First Quarter

Hourly Weather History & Observations

Time (CST) Temp. Windchill Dew Point Humidity Pressure Visibility Wind Dir Wind Speed Gust Speed Precip Events Conditions
12:15 AM 43.3 °F 37.7 °F 34.9 °F 72% 29.67 in 10.0 mi SSE 10.4 mph - N/A   Clear
12:35 AM 43.2 °F 37.0 °F 34.7 °F 72% 29.67 in 10.0 mi SSE 11.5 mph - N/A   Clear
12:55 AM 42.3 °F 36.8 °F 34.3 °F 74% 29.67 in 10.0 mi SSE 9.2 mph - N/A   Clear
1:15 AM 41.9 °F 35.9 °F 34.2 °F 74% 29.66 in 10.0 mi SSE 10.4 mph - N/A   Clear
1:35 AM 41.9 °F 35.9 °F 34.3 °F 75% 29.66 in 10.0 mi SSE 10.4 mph - N/A   Clear
1:55 AM 41.5 °F 35.9 °F 34.7 °F 77% 29.66 in 10.0 mi SSE 9.2 mph - N/A   Clear
2:15 AM 41.9 °F 35.4 °F 34.9 °F 76% 29.65 in 10.0 mi SSE 11.5 mph - N/A   Scattered Clouds
2:35 AM 42.4 °F 36.1 °F 35.1 °F 75% 29.64 in 10.0 mi SSE 11.5 mph 19.6 mph N/A   Scattered Clouds
2:55 AM 43.0 °F 36.4 °F 35.4 °F 75% 29.63 in 10.0 mi SSE 12.7 mph 21.9 mph N/A   Clear
3:15 AM 43.0 °F 37.2 °F 35.6 °F 75% 29.62 in 10.0 mi SE 10.4 mph - N/A   Mostly Cloudy
3:35 AM 42.8 °F 37.5 °F 35.8 °F 76% 29.61 in 10.0 mi SE 9.2 mph - N/A   Overcast
3:55 AM 42.8 °F 38.0 °F 36.0 °F 77% 29.61 in 10.0 mi SE 8.1 mph - N/A   Overcast
4:15 AM 43.3 °F 39.2 °F 36.5 °F 77% 29.60 in 10.0 mi SE 6.9 mph - N/A   Overcast
4:35 AM 43.3 °F 38.6 °F 36.7 °F 77% 29.59 in 10.0 mi SE 8.1 mph - N/A   Overcast
4:55 AM 42.8 °F 38.6 °F 36.7 °F 79% 29.59 in 10.0 mi SE 6.9 mph - N/A   Mostly Cloudy
5:15 AM 41.9 °F 40.0 °F 36.5 °F 81% 29.58 in 10.0 mi SE 3.5 mph - N/A   Clear
5:35 AM 40.5 °F 36.5 °F 36.3 °F 85% 29.58 in 10.0 mi SE 5.8 mph - N/A   Clear
5:55 AM 40.5 °F 35.1 °F 36.9 °F 87% 29.57 in 10.0 mi SE 8.1 mph - N/A   Scattered Clouds
6:15 AM 41.2 °F 36.0 °F 37.4 °F 86% 29.57 in 10.0 mi SSE 8.1 mph - N/A   Mostly Cloudy
6:35 AM 41.7 °F 35.2 °F 37.8 °F 86% 29.56 in 10.0 mi SE 11.5 mph - N/A   Scattered Clouds
6:55 AM 41.9 °F 35.9 °F 37.9 °F 86% 29.56 in 10.0 mi SE 10.4 mph - N/A   Clear
7:15 AM 41.7 °F 35.6 °F 38.3 °F 88% 29.55 in 10.0 mi SSE 10.4 mph - N/A   Clear
7:35 AM 41.9 °F 35.4 °F 39.0 °F 90% 29.56 in 10.0 mi SSE 11.5 mph - N/A   Scattered Clouds
7:55 AM 43.2 °F 36.6 °F 39.6 °F 87% 29.55 in 10.0 mi SSE 12.7 mph - N/A   Overcast
8:15 AM 44.1 °F 37.7 °F 40.1 °F 86% 29.55 in 10.0 mi SSE 12.7 mph 18.4 mph N/A   Overcast
8:35 AM 44.6 °F 38.4 °F 40.5 °F 85% 29.55 in 10.0 mi SSE 12.7 mph 16.1 mph N/A   Overcast
8:55 AM 45.1 °F 39.5 °F 41.0 °F 85% 29.54 in 10.0 mi SSE 11.5 mph - N/A   Overcast
9:15 AM 45.1 °F 38.8 °F 41.0 °F 85% 29.54 in 10.0 mi SSE 13.8 mph 17.3 mph N/A   Overcast
9:35 AM 45.1 °F 38.4 °F 41.5 °F 87% 29.54 in 10.0 mi SSE 15.0 mph 19.6 mph N/A   Overcast
9:55 AM 44.8 °F 38.7 °F 42.1 °F 90% 29.53 in 7.0 mi SE 12.7 mph 17.3 mph N/A   Overcast
10:15 AM 44.8 °F 38.0 °F 42.8 °F 93% 29.53 in 7.0 mi SSE 15.0 mph - N/A   Overcast
10:35 AM 44.8 °F 39.9 °F 42.8 °F 93% 29.53 in 7.0 mi SSE 9.2 mph - N/A   Overcast
10:55 AM 44.8 °F 39.4 °F 43.2 °F 94% 29.51 in 5.0 mi SE 10.4 mph - N/A   Overcast
11:15 AM 45.0 °F 39.7 °F 43.7 °F 95% 29.50 in 4.0 mi SE 10.4 mph 18.4 mph N/A   Overcast
11:35 AM 44.6 °F 38.4 °F 43.9 °F 97% 29.47 in 3.0 mi SE 12.7 mph 18.4 mph N/A   Overcast
11:55 AM 44.8 °F 39.0 °F 44.2 °F 98% 29.47 in 2.0 mi SE 11.5 mph - N/A   Overcast
12:15 PM 44.6 °F 39.7 °F 44.4 °F 99% 29.45 in 4.0 mi SE 9.2 mph - N/A   Overcast
12:35 PM 45.0 °F 39.7 °F 44.6 °F 99% 29.44 in 5.0 mi SE 10.4 mph - N/A   Light Drizzle
12:55 PM 44.8 °F 38.7 °F 44.2 °F 98% 29.42 in 5.0 mi ESE 12.7 mph 16.1 mph N/A   Light Drizzle
1:15 PM 44.6 °F 39.2 °F 44.1 °F 98% 29.41 in 5.0 mi ESE 10.4 mph 17.3 mph N/A Rain Light Rain
1:35 PM 43.9 °F 37.5 °F 43.7 °F 99% 29.40 in 4.0 mi ESE 12.7 mph - 0.03 in Rain Light Rain
1:55 PM 43.7 °F 38.1 °F 43.7 °F 100% 29.39 in 2.0 mi ESE 10.4 mph - 0.03 in Rain Light Rain
2:15 PM 43.7 °F 37.3 °F 43.7 °F 100% 29.37 in 1.8 mi ESE 12.7 mph - N/A   Unknown
2:35 PM 43.9 °F 38.3 °F 43.9 °F 100% 29.36 in 1.8 mi ESE 10.4 mph - 0.01 in Rain Light Rain
2:55 PM 44.2 °F 38.8 °F 44.2 °F 100% 29.34 in 5.0 mi ESE 10.4 mph - 0.01 in   Light Drizzle
3:15 PM 44.6 °F 39.2 °F 44.6 °F 100% 29.33 in 7.0 mi ESE 10.4 mph 16.1 mph N/A   Light Drizzle
3:35 PM 45.1 °F 39.9 °F 44.8 °F 99% 29.33 in 10.0 mi SE 10.4 mph - N/A   Overcast
3:55 PM 45.5 °F 39.6 °F 45.0 °F 98% 29.31 in 10.0 mi ESE 12.7 mph - N/A   Light Drizzle
4:15 PM 45.3 °F 40.1 °F 45.1 °F 99% 29.30 in 7.0 mi SE 10.4 mph - N/A   Drizzle
4:35 PM 45.5 °F 41.3 °F 45.5 °F 100% 29.28 in 10.0 mi ESE 8.1 mph - N/A   Overcast
4:55 PM 45.5 °F 41.3 °F 45.5 °F 100% 29.27 in 10.0 mi ESE 8.1 mph - N/A Rain Light Rain
5:15 PM 45.7 °F 44.4 °F 45.7 °F 100% 29.27 in 10.0 mi East 3.5 mph - N/A   Overcast
5:35 PM 45.9 °F - 45.9 °F 100% 29.28 in 10.0 mi Calm Calm - N/A   Overcast
5:55 PM 46.0 °F 44.8 °F 46.0 °F 100% 29.28 in 10.0 mi East 3.5 mph - N/A   Overcast
6:15 PM 46.0 °F 43.1 °F 46.0 °F 100% 29.29 in 10.0 mi ESE 5.8 mph - 0.01 in Rain Light Rain
6:35 PM 46.0 °F 43.9 °F 46.0 °F 100% 29.28 in 10.0 mi ESE 4.6 mph - 0.01 in   Overcast
6:55 PM 46.6 °F - 46.6 °F 100% 29.28 in 10.0 mi SE 4.6 mph - 0.01 in   Overcast
7:15 PM 46.6 °F - 46.6 °F 100% 29.28 in 10.0 mi ESE 3.5 mph - N/A   Overcast
7:35 PM 46.6 °F - 46.6 °F 100% 29.28 in 10.0 mi ESE 4.6 mph - N/A   Overcast
7:55 PM 46.4 °F 45.2 °F 46.4 °F 100% 29.29 in 7.0 mi SSE 3.5 mph - N/A   Overcast
8:15 PM 46.8 °F - 46.8 °F 100% 29.29 in 10.0 mi Calm Calm - N/A   Overcast
8:35 PM 47.3 °F - 47.3 °F 100% 29.29 in 10.0 mi South 5.8 mph - N/A   Overcast
8:55 PM 48.2 °F - 48.2 °F 100% 29.30 in 7.0 mi SSW 4.6 mph - N/A   Overcast
9:15 PM 50.4 °F - 50.2 °F 99% 29.31 in 7.0 mi SW 11.5 mph - N/A   Overcast
9:35 PM 49.8 °F - 49.5 °F 99% 29.32 in 7.0 mi SW 11.5 mph - N/A   Overcast
9:55 PM 49.1 °F - 48.7 °F 99% 29.32 in 7.0 mi SSW 10.4 mph - N/A   Mostly Cloudy
10:15 PM 48.2 °F - 47.7 °F 98% 29.33 in 7.0 mi SSW 8.1 mph - N/A   Scattered Clouds
10:35 PM 47.8 °F - 47.1 °F 97% 29.33 in 7.0 mi SSW 6.9 mph - N/A   Clear
10:55 PM 47.3 °F - 46.4 °F 97% 29.33 in 7.0 mi SSW 8.1 mph - N/A   Clear
11:15 PM 46.8 °F - 45.9 °F 97% 29.34 in 7.0 mi South 9.2 mph - N/A   Clear
11:35 PM 45.7 °F 42.0 °F 45.1 °F 98% 29.34 in 7.0 mi South 6.9 mph - N/A   Clear
11:55 PM 44.4 °F 41.2 °F 44.1 °F 99% 29.34 in 7.0 mi South 5.8 mph - N/A   Clear